DW6863 Weather Reports


time (UTC)temp
F
wind
direction
speed
knots
gust
knots
rain 1hr
in
rain 24hr
in
rain mn
in
humidity
%
barometer
mb
20220124033505 38 112 0.0 0.9 0.00 0.00 0.00 100 1028.7
20220124003519 39 292 0.9 3.5 0.00 0.00 0.00 99 1029.0
20220123235008 39 270 1.7 3.5 0.00 0.00 0.00 99 1029.0
20220123234505 40 270 1.7 2.6 0.00 0.00 0.00 99 1029.0
20220123234009 40 315 1.7 2.6 0.00 0.00 0.00 99 1029.0
20220123215016 40 292 1.7 3.5 0.00 0.00 0.00 99 1029.3
20220123204014 39 247 0.9 3.5 0.00 0.00 0.00 100 1029.7
20220123202014 39 202 0.0 0.9 0.00 0.00 0.00 100 1030.0
20220123201018 39 225 0.0 1.7 0.00 0.00 0.00 100 1030.4
20220123194504 38 315 0.9 3.5 0.00 0.00 0.00 100 1030.7
20220123194003 38 315 0.9 1.7 0.00 0.00 0.00 100 1030.7
20220123193506 38 315 0.9 3.5 0.00 0.00 0.00 100 1030.7
20220123193005 38 22 0.9 1.7 0.00 0.00 0.00 100 1030.7
20220123184504 38 315 0.9 2.6 0.00 0.00 0.00 100 1031.4
20220123184014 38 270 0.0 2.6 0.00 0.00 0.00 100 1031.4
20220123182504 37 67 0.0 2.6 0.00 0.00 0.00 100 1031.4
20220123171004 36 67 0.0 0.9 0.00 0.00 0.00 100 1031.7
20220123170507 36 180 0.0 2.6 0.00 0.00 0.00 100 1031.4
20220123170005 36 157 0.0 2.6 0.00 0.00 0.00 100 1031.4
20220123165503 36 135 0.0 0.9 0.00 0.00 0.00 100 1031.4
20220123165002 36 90 0.0 3.5 0.00 0.00 0.00 100 1031.4
20220123164507 36 45 0.0 2.6 0.00 0.00 0.00 100 1031.4
20220123164006 36 45 0.0 1.7 0.00 0.00 0.00 100 1031.4
20220123163505 36 360 0.0 0.9 0.00 0.00 0.00 100 1031.4
20220123163003 36 360 0.9 3.5 0.00 0.00 0.00 100 1031.4
20220123162514 36 67 0.0 0.0 0.00 0.00 0.00 100 1031.4
20220123162006 36 67 0.9 1.7 0.00 0.00 0.00 100 1031.4
20220123161505 36 67 1.7 3.5 0.00 0.00 0.00 100 1031.4
20220123161004 36 45 0.0 3.5 0.00 0.00 0.00 100 1031.4
20220123160503 36 90 0.0 2.6 0.00 0.00 0.00 100 1031.4
20220123160007 36 45 0.9 2.6 0.00 0.00 0.00 100 1031.4
20220123155505 36 67 1.7 3.5 0.00 0.00 0.00 100 1031.4
20220123155004 36 45 0.9 3.5 0.00 0.00 0.00 100 1031.4
20220123154502 36 45 0.9 2.6 0.00 0.00 0.00 100 1031.4
20220123154007 36 90 0.0 0.9 0.00 0.00 0.00 100 1031.4
20220123153505 36 90 0.0 2.6 0.00 0.00 0.00 100 1031.4
20220123153015 36 360 0.0 0.9 0.00 0.00 0.00 100 1031.4
20220123152502 37 45 0.0 0.9 0.00 0.00 0.00 100 1031.4
20220123152007 37 45 0.0 0.0 0.00 0.00 0.00 100 1031.4
20220123151505 37 45 0.0 0.0 0.00 0.00 0.00 100 1031.4
20220123151004 37 45 0.0 0.0 0.00 0.00 0.00 100 1031.4
20220123150503 37 45 0.0 0.9 0.00 0.00 0.00 100 1031.4
20220123150007 37 225 0.0 0.0 0.00 0.00 0.00 100 1031.4
20220123145506 36 112 0.0 0.9 0.00 0.00 0.00 100 1031.4
20220123145004 36 225 0.0 1.7 0.00 0.00 0.00 100 1031.4
20220123144503 36 180 0.0 1.7 0.00 0.00 0.00 100 1031.4
20220123144001 36 337 0.0 1.7 0.00 0.00 0.00 100 1031.4
20220123143506 36 337 0.0 0.9 0.00 0.00 0.00 100 1031.4
20220123143004 36 315 0.9 2.6 0.00 0.00 0.00 100 1031.4
20220123142503 37 45 0.0 1.7 0.00 0.00 0.00 100 1031.4
20220123142008 37 45 0.0 4.3 0.00 0.00 0.00 100 1031.4
20220123141506 37 67 0.0 1.7 0.00 0.00 0.00 100 1031.4
20220123141005 37 180 0.0 1.7 0.00 0.00 0.00 100 1031.4
20220123140503 38 315 0.0 2.6 0.00 0.00 0.00 100 1031.4
20220123140007 38 315 0.9 3.5 0.00 0.00 0.00 100 1031.4
20220123135505 38 292 2.6 3.5 0.00 0.00 0.00 100 1031.4
20220123135004 38 270 0.0 1.7 0.00 0.00 0.00 100 1031.4
20220123134501 38 180 0.0 1.7 0.00 0.00 0.00 100 1031.4
20220123134006 38 112 0.0 1.7 0.00 0.00 0.00 100 1031.4
20220123133505 38 112 0.0 1.7 0.00 0.00 0.00 100 1031.0
20220123133004 38 225 0.9 1.7 0.00 0.00 0.00 100 1031.0
20220123132502 38 90 0.9 1.7 0.00 0.00 0.00 100 1031.4
20220123132007 38 180 0.0 1.7 0.00 0.00 0.00 100 1031.4
20220123131506 38 225 0.0 1.7 0.00 0.00 0.00 100 1031.4
20220123131004 38 180 0.0 0.0 0.00 0.00 0.00 100 1031.4
20220123130502 38 180 0.0 1.7 0.00 0.00 0.00 100 1031.4
20220123130007 38 90 0.0 0.0 0.00 0.00 0.00 100 1031.4
20220123125506 39 180 0.0 0.0 0.00 0.00 0.00 100 1031.4
20220123125005 38 180 0.0 0.0 0.00 0.00 0.00 100 1031.7
20220123124502 38 180 0.0 1.7 0.00 0.00 0.00 100 1031.7
20220123124001 39 225 0.0 0.0 0.00 0.00 0.00 100 1031.7
20220123123506 38 225 0.0 1.7 0.00 0.00 0.00 100 1031.7
20220123123005 38 180 0.0 0.0 0.00 0.00 0.00 100 1031.7
20220123122503 38 180 0.0 0.0 0.00 0.00 0.00 100 1031.7
20220123122002 38 180 0.0 0.9 0.00 0.00 0.00 100 1031.7
20220123121506 38 180 0.0 0.0 0.00 0.00 0.00 100 1031.7
20220123121004 38 180 0.9 2.6 0.00 0.00 0.00 100 1031.7
20220123120503 38 225 0.0 0.0 0.00 0.00 0.00 100 1031.7
20220123120007 38 225 0.0 0.0 0.00 0.00 0.00 100 1031.7
20220123115505 37 202 0.0 0.0 0.00 0.00 0.00 100 1031.7
20220123115003 37 202 0.0 0.0 0.00 0.00 0.00 100 1031.7
20220123114502 37 180 0.0 0.0 0.00 0.00 0.00 100 1031.7
20220123114007 37 180 0.0 0.0 0.00 0.00 0.00 100 1031.7
20220123113505 37 180 0.0 0.9 0.00 0.00 0.00 100 1031.7
20220123113003 36 135 0.0 0.0 0.00 0.00 0.00 100 1031.7
20220123112502 36 135 0.0 0.0 0.00 0.00 0.00 100 1031.7
20220123112007 36 135 0.0 0.9 0.00 0.00 0.00 100 1031.7
20220123111506 36 22 0.0 0.0 0.00 0.00 0.00 100 1031.7
20220123111004 36 22 0.0 0.0 0.00 0.00 0.00 100 1032.0
20220123110503 36 22 0.0 0.0 0.00 0.00 0.00 100 1032.0
20220123110002 37 22 0.0 0.0 0.00 0.00 0.00 100 1032.0